Location: Newark
(47.3153°N, 5.7094°E)
Time: 17:11:39
(UTC+00:00)

N. Korean satellite - Visible Passes

Search period start: 17 September 2019 00:00
Search period end: 27 September 2019 00:00
Orbit: 455 x 508 km, 97.2° (Epoch: 16 September)

Date Brightness Start Highest point End Pass type
(mag) Time Alt. Az. Time Alt. Az. Time Alt. Az.
17 Sep 9.8 04:42:40 10° NE 04:44:49 16° E 04:46:58 10° SE visible
21 Sep 10.0 04:35:35 10° ENE 04:37:15 13° E 04:38:54 10° ESE visible
24 Sep 9.6 04:52:27 10° NE 04:55:06 21° E 04:57:45 10° SE visible
25 Sep 10.4 04:28:48 10° ENE 04:29:39 11° E 04:30:30 10° ESE visible
